WB4FAY-4 Weather Reports


Display with metric or nautical units.
time (UTC)temp
F
wind
direction
speed
MPH
gust
MPH
rain 1hr
in
rain 24hr
in
rain mn
in
humidity
%
barometer
mb
20240620213018 92 83 0.0 4.0 0.00 0.00 0.00 39 1023.3
20240620212517 92 79 3.0 7.0 0.00 0.00 0.00 39 1023.3
20240620212017 92 69 0.0 6.0 0.00 0.00 0.00 39 1023.3
20240620211517 91 61 0.0 7.0 0.00 0.00 0.00 40 1023.3
20240620211017 91 82 0.0 4.0 0.00 0.00 0.00 40 1023.4
20240620210517 91 64 0.0 5.0 0.00 0.00 0.00 41 1023.5
20240620210017 90 90 0.0 7.0 0.00 0.00 0.00 43 1023.6
20240620205517 90 30 2.0 4.0 0.00 0.00 0.00 43 1023.7
20240620205017 89 34 2.0 4.0 0.00 0.00 0.00 44 1023.8
20240620204517 89 0 0.0 0.0 0.00 0.00 0.00 45 1023.9
20240620204017 90 0 0.0 0.0 0.00 0.00 0.00 44 1023.8
20240620203517 90 104 0.0 4.0 0.00 0.00 0.00 43 1023.9
20240620203017 90 86 2.0 4.0 0.00 0.00 0.00 43 1023.9
20240620202518 90 48 1.0 5.0 0.00 0.00 0.00 43 1024.0
20240620202017 90 71 3.0 5.0 0.00 0.00 0.00 43 1024.0
20240620201517 90 68 3.0 2.0 0.00 0.00 0.00 43 1024.0
20240620201017 90 68 0.0 9.0 0.00 0.00 0.00 42 1024.0
20240620200517 90 78 1.0 5.0 0.00 0.00 0.00 42 1024.1
20240620200017 90 73 0.0 11.0 0.00 0.00 0.00 42 1024.2
20240620195517 90 88 9.0 6.0 0.00 0.00 0.00 41 1024.2
20240620195017 90 86 0.0 8.0 0.00 0.00 0.00 42 1024.2
20240620194517 90 138 7.0 9.0 0.00 0.00 0.00 42 1024.2
20240620194017 90 83 3.0 7.0 0.00 0.00 0.00 43 1024.2
20240620193518 90 73 2.0 7.0 0.00 0.00 0.00 43 1024.3
20240620193017 90 326 0.0 5.0 0.00 0.00 0.00 43 1024.3
20240620192517 89 64 1.0 11.0 0.00 0.00 0.00 42 1024.5
20240620192017 90 79 0.0 6.0 0.00 0.00 0.00 43 1024.6
20240620191517 90 59 0.0 5.0 0.00 0.00 0.00 41 1024.4
20240620191017 90 79 1.0 6.0 0.00 0.00 0.00 41 1024.5
20240620190518 91 58 4.0 8.0 0.00 0.00 0.00 42 1024.6
20240620190017 90 347 4.0 6.0 0.00 0.00 0.00 41 1024.6
20240620185517 90 10 0.0 7.0 0.00 0.00 0.00 42 1024.6
20240620185017 90 79 4.0 10.0 0.00 0.00 0.00 41 1024.7
20240620184517 90 34 2.0 10.0 0.00 0.00 0.00 43 1024.7
20240620184017 90 82 3.0 6.0 0.00 0.00 0.00 43 1024.7
20240620183517 90 112 3.0 10.0 0.00 0.00 0.00 43 1024.8
20240620183017 90 79 3.0 12.0 0.00 0.00 0.00 44 1024.8
20240620182517 89 96 1.0 3.0 0.00 0.00 0.00 44 1024.8
20240620182017 89 104 1.0 6.0 0.00 0.00 0.00 45 1024.9
20240620181517 89 89 2.0 8.0 0.00 0.00 0.00 45 1025.0
20240620181017 89 75 2.0 9.0 0.00 0.00 0.00 44 1025.1
20240620180517 89 79 2.0 7.0 0.00 0.00 0.00 44 1025.2
20240620180017 90 1 2.0 8.0 0.00 0.00 0.00 43 1025.2
20240620175518 90 73 7.0 7.0 0.00 0.00 0.00 43 1025.2
20240620175017 89 54 1.0 4.0 0.00 0.00 0.00 43 1025.2
20240620174517 89 73 0.0 6.0 0.00 0.00 0.00 44 1025.3
20240620174017 88 80 1.0 6.0 0.00 0.00 0.00 45 1025.3
20240620173517 88 100 3.0 7.0 0.00 0.00 0.00 45 1025.3
20240620173017 88 85 4.0 6.0 0.00 0.00 0.00 44 1025.4
20240620172517 89 21 1.0 5.0 0.00 0.00 0.00 45 1025.4
20240620172017 88 48 0.0 5.0 0.00 0.00 0.00 45 1025.3
20240620171517 89 72 2.0 8.0 0.00 0.00 0.00 43 1025.3
20240620171017 89 42 8.0 8.0 0.00 0.00 0.00 45 1025.4
20240620170517 88 3 2.0 9.0 0.00 0.00 0.00 46 1025.5
20240620170017 88 92 4.0 8.0 0.00 0.00 0.00 45 1025.5
20240620165517 88 59 5.0 9.0 0.00 0.00 0.00 45 1025.5
20240620165017 88 85 4.0 9.0 0.00 0.00 0.00 45 1025.5
20240620164517 88 6 1.0 12.0 0.00 0.00 0.00 45 1025.6
20240620164017 88 109 4.0 8.0 0.00 0.00 0.00 47 1025.6
20240620163517 87 112 5.0 9.0 0.00 0.00 0.00 45 1025.6
20240620163017 87 68 1.0 7.0 0.00 0.00 0.00 45 1025.7
20240620162517 87 68 0.0 6.0 0.00 0.00 0.00 47 1025.7
20240620162017 87 69 2.0 8.0 0.00 0.00 0.00 47 1025.8
20240620161517 87 96 4.0 8.0 0.00 0.00 0.00 47 1025.7
20240620161017 87 85 3.0 8.0 0.00 0.00 0.00 48 1025.8
20240620160518 86 65 4.0 8.0 0.00 0.00 0.00 48 1026.0
20240620160018 86 35 4.0 10.0 0.00 0.00 0.00 47 1025.9
20240620155518 86 79 7.0 10.0 0.00 0.00 0.00 48 1026.0
20240620155018 86 102 6.0 10.0 0.00 0.00 0.00 47 1026.1
20240620154518 86 85 6.0 6.0 0.00 0.00 0.00 50 1026.2
20240620154018 86 34 3.0 5.0 0.00 0.00 0.00 50 1026.2
20240620153518 85 47 3.0 6.0 0.00 0.00 0.00 51 1026.3
20240620153018 85 8 3.0 5.0 0.00 0.00 0.00 52 1026.3
20240620152518 85 86 0.0 5.0 0.00 0.00 0.00 53 1026.3
20240620152018 84 96 2.0 4.0 0.00 0.00 0.00 54 1026.3
20240620151518 84 35 1.0 6.0 0.00 0.00 0.00 56 1026.3
20240620151018 84 52 1.0 5.0 0.00 0.00 0.00 56 1026.4
20240620150517 83 37 4.0 6.0 0.00 0.00 0.00 57 1026.3
20240620150018 83 130 3.0 8.0 0.00 0.00 0.00 57 1026.3
20240620145518 83 72 3.0 5.0 0.00 0.00 0.00 57 1026.3
20240620145017 83 83 2.0 5.0 0.00 0.00 0.00 58 1026.3
20240620144517 83 40 0.0 7.0 0.00 0.00 0.00 58 1026.2
20240620144017 82 113 0.0 4.0 0.00 0.00 0.00 58 1026.2
20240620143517 82 47 0.0 6.0 0.00 0.00 0.00 59 1026.1
20240620143017 81 75 1.0 7.0 0.00 0.00 0.00 60 1026.1
20240620142517 82 32 4.0 6.0 0.00 0.00 0.00 59 1026.2
20240620142017 81 89 5.0 7.0 0.00 0.00 0.00 61 1026.2
20240620141517 81 79 6.0 4.0 0.00 0.00 0.00 62 1026.2
20240620141017 80 88 0.0 5.0 0.00 0.00 0.00 62 1026.2
20240620140517 80 76 0.0 7.0 0.00 0.00 0.00 64 1026.2
20240620140017 80 78 3.0 8.0 0.00 0.00 0.00 64 1026.2
20240620135517 79 82 2.0 5.0 0.00 0.00 0.00 65 1026.1
20240620135017 79 80 0.0 8.0 0.00 0.00 0.00 66 1026.1
20240620134517 78 76 3.0 6.0 0.00 0.00 0.00 67 1026.1
20240620134017 78 75 0.0 7.0 0.00 0.00 0.00 67 1026.1
20240620133517 78 102 2.0 5.0 0.00 0.00 0.00 68 1026.0
20240620133017 78 75 0.0 7.0 0.00 0.00 0.00 68 1026.0
20240620132518 78 79 2.0 7.0 0.00 0.00 0.00 69 1026.0
20240620132017 77 27 2.0 6.0 0.00 0.00 0.00 69 1025.9
20240620131517 77 69 3.0 9.0 0.00 0.00 0.00 71 1025.9
20240620131017 76 80 2.0 7.0 0.00 0.00 0.00 72 1025.9
20240620130517 76 112 4.0 7.0 0.00 0.00 0.00 73 1025.9
20240620130022 76 90 2.0 7.0 0.00 0.00 0.00 73 1025.9
20240620125517 76 88 3.0 5.0 0.00 0.00 0.00 74 1025.8
20240620125017 75 104 2.0 6.0 0.00 0.00 0.00 74 1025.7
20240620124517 75 90 2.0 9.0 0.00 0.00 0.00 74 1025.6
20240620124017 75 82 1.0 5.0 0.00 0.00 0.00 75 1025.6
20240620123517 74 75 3.0 6.0 0.00 0.00 0.00 75 1025.6
20240620123017 74 89 1.0 7.0 0.00 0.00 0.00 76 1025.5
20240620122517 74 85 2.0 9.0 0.00 0.00 0.00 76 1025.4
20240620122017 74 72 2.0 7.0 0.00 0.00 0.00 77 1025.4
20240620121517 74 82 2.0 7.0 0.00 0.00 0.00 77 1025.4
20240620121017 73 80 5.0 8.0 0.00 0.00 0.00 78 1025.4
20240620120517 73 76 2.0 6.0 0.00 0.00 0.00 78 1025.4
20240620120017 73 110 3.0 6.0 0.00 0.00 0.00 79 1025.3
20240620115517 73 116 0.0 7.0 0.00 0.00 0.00 79 1025.2
20240620115017 72 110 2.0 5.0 0.00 0.00 0.00 79 1025.2
20240620114517 72 99 1.0 5.0 0.00 0.00 0.00 80 1025.2
20240620114017 72 92 1.0 5.0 0.00 0.00 0.00 80 1025.1
20240620113517 72 110 2.0 5.0 0.00 0.00 0.00 80 1025.1
20240620113017 72 100 1.0 7.0 0.00 0.00 0.00 80 1025.1
20240620112517 72 88 4.0 5.0 0.00 0.00 0.00 80 1025.1
20240620112017 72 109 2.0 4.0 0.00 0.00 0.00 80 1025.2
20240620111517 72 86 1.0 6.0 0.00 0.00 0.00 80 1025.2
20240620111017 72 59 1.0 5.0 0.00 0.00 0.00 80 1025.2
20240620110517 72 92 0.0 4.0 0.00 0.00 0.00 79 1025.1
20240620110017 72 68 3.0 5.0 0.00 0.00 0.00 79 1025.1
20240620105517 72 65 2.0 5.0 0.00 0.00 0.00 79 1025.0
20240620105017 72 103 3.0 4.0 0.00 0.00 0.00 79 1025.0
20240620104517 72 79 2.0 5.0 0.00 0.00 0.00 79 1025.1
20240620104017 72 85 1.0 4.0 0.00 0.00 0.00 78 1025.1
20240620103518 72 113 2.0 3.0 0.00 0.00 0.00 78 1025.0
20240620103018 72 112 0.0 3.0 0.00 0.00 0.00 78 1025.0
20240620102518 72 100 0.0 3.0 0.00 0.00 0.00 77 1025.0
20240620102018 73 72 1.0 6.0 0.00 0.00 0.00 77 1024.9
20240620101518 73 92 3.0 4.0 0.00 0.00 0.00 77 1024.9
20240620101017 73 80 0.0 2.0 0.00 0.00 0.00 77 1024.8
20240620100518 73 90 1.0 4.0 0.00 0.00 0.00 77 1024.8
20240620100018 73 120 3.0 2.0 0.00 0.00 0.00 76 1024.8
20240620095518 73 99 0.0 7.0 0.00 0.00 0.00 76 1024.7
20240620095017 73 80 2.0 5.0 0.00 0.00 0.00 76 1024.7
20240620094517 73 79 0.0 3.0 0.00 0.00 0.00 76 1024.7
20240620094017 73 99 1.0 4.0 0.00 0.00 0.00 76 1024.7
20240620093517 73 92 1.0 4.0 0.00 0.00 0.00 76 1024.7
20240620093017 73 90 2.0 5.0 0.00 0.00 0.00 76 1024.7
20240620092517 73 61 0.0 4.0 0.00 0.00 0.00 76 1024.6
20240620092017 73 90 1.0 4.0 0.00 0.00 0.00 76 1024.6
20240620091517 73 83 1.0 6.0 0.00 0.00 0.00 76 1024.5
20240620091017 73 112 1.0 2.0 0.00 0.00 0.00 76 1024.5
20240620090517 73 99 2.0 4.0 0.00 0.00 0.00 77 1024.4
20240620090017 73 83 1.0 4.0 0.00 0.00 0.00 77 1024.3
20240620085518 73 30 3.0 1.0 0.00 0.00 0.00 77 1024.3
20240620085017 73 90 0.0 5.0 0.00 0.00 0.00 77 1024.2
20240620084517 73 76 2.0 3.0 0.00 0.00 0.00 76 1024.1
20240620084017 73 96 0.0 3.0 0.00 0.00 0.00 76 1024.2
20240620083517 73 79 0.0 3.0 0.00 0.00 0.00 76 1024.1
20240620083018 73 93 0.0 5.0 0.00 0.00 0.00 76 1024.0
20240620082517 73 80 2.0 6.0 0.00 0.00 0.00 76 1024.0
20240620082017 74 133 0.0 5.0 0.00 0.00 0.00 75 1024.0
20240620081517 74 83 4.0 5.0 0.00 0.00 0.00 75 1023.9
20240620081017 74 102 1.0 4.0 0.00 0.00 0.00 75 1023.9
20240620080518 74 32 0.0 2.0 0.00 0.00 0.00 75 1023.9
20240620080017 74 96 0.0 4.0 0.00 0.00 0.00 75 1023.9
20240620075517 74 69 1.0 4.0 0.00 0.00 0.00 74 1023.9
20240620075017 74 83 2.0 4.0 0.00 0.00 0.00 74 1023.9
20240620074518 74 56 2.0 4.0 0.00 0.00 0.00 74 1024.0
20240620074017 74 65 1.0 6.0 0.00 0.00 0.00 75 1024.0
20240620073517 74 85 4.0 5.0 0.00 0.00 0.00 75 1024.0
20240620073017 74 83 1.0 5.0 0.00 0.00 0.00 75 1024.0
20240620072517 74 82 1.0 3.0 0.00 0.00 0.00 75 1024.0
20240620072018 74 102 1.0 4.0 0.00 0.00 0.00 74 1023.9
20240620071517 74 65 2.0 6.0 0.00 0.00 0.00 74 1023.9
20240620071017 74 73 1.0 5.0 0.00 0.00 0.00 74 1023.8
20240620070517 74 73 3.0 6.0 0.00 0.00 0.00 74 1023.8
20240620070017 74 89 2.0 7.0 0.00 0.00 0.00 74 1023.8
20240620065517 74 75 1.0 5.0 0.00 0.00 0.00 74 1023.8
20240620065022 74 85 2.0 7.0 0.00 0.00 0.00 73 1023.8
20240620064517 74 95 4.0 6.0 0.00 0.00 0.00 73 1023.7
20240620064017 74 82 2.0 5.0 0.00 0.00 0.00 73 1023.7
20240620063517 74 71 0.0 5.0 0.00 0.00 0.00 73 1023.6
20240620063018 74 83 3.0 6.0 0.00 0.00 0.00 73 1023.6
20240620062517 74 83 3.0 4.0 0.00 0.00 0.00 72 1023.5
20240620062017 74 80 3.0 6.0 0.00 0.00 0.00 72 1023.5
20240620061517 75 90 3.0 4.0 0.00 0.00 0.00 72 1023.4
20240620061017 75 89 2.0 8.0 0.00 0.00 0.00 72 1023.4
20240620060517 75 104 1.0 4.0 0.00 0.00 0.00 72 1023.5
20240620060018 75 107 0.0 3.0 0.00 0.00 0.00 72 1023.5
20240620055518 75 109 1.0 5.0 0.00 0.00 0.00 72 1023.5
20240620055018 75 106 1.0 4.0 0.00 0.00 0.00 71 1023.4
20240620054518 75 96 1.0 3.0 0.00 0.00 0.00 71 1023.4
20240620054018 75 80 1.0 5.0 0.00 0.00 0.00 71 1023.4
20240620053518 75 90 1.0 5.0 0.00 0.00 0.00 70 1023.4
20240620053017 75 44 1.0 3.0 0.00 0.00 0.00 70 1023.5
20240620052518 75 92 3.0 6.0 0.00 0.00 0.00 70 1023.5
20240620052017 75 104 2.0 4.0 0.00 0.00 0.00 70 1023.5
20240620051517 76 72 1.0 4.0 0.00 0.00 0.00 69 1023.5
20240620051017 76 97 2.0 5.0 0.00 0.00 0.00 69 1023.4
20240620050517 76 59 0.0 3.0 0.00 0.00 0.00 69 1023.4
20240620050017 76 79 1.0 4.0 0.00 0.00 0.00 69 1023.3
20240620045517 76 96 1.0 3.0 0.00 0.00 0.00 69 1023.3
20240620045017 76 59 2.0 3.0 0.00 0.00 0.00 69 1023.4
20240620044518 76 107 1.0 3.0 0.00 0.00 0.00 68 1023.3
20240620044017 76 92 0.0 2.0 0.00 0.00 0.00 68 1023.4
20240620043517 77 78 0.0 4.0 0.00 0.00 0.00 67 1023.4
20240620043017 77 73 0.0 2.0 0.00 0.00 0.00 67 1023.5
20240620042517 76 69 0.0 4.0 0.00 0.00 0.00 67 1023.5
20240620042017 77 110 1.0 4.0 0.00 0.00 0.00 67 1023.5
20240620041517 77 83 1.0 5.0 0.00 0.00 0.00 67 1023.5
20240620041017 77 68 0.0 4.0 0.00 0.00 0.00 67 1023.5
20240620040517 77 0 0.0 0.0 0.00 0.00 0.00 67 1023.6
20240620040017 77 0 0.0 0.0 0.00 0.00 0.00 67 1023.6
20240620035517 77 0 0.0 0.0 0.00 0.00 0.00 67 1023.6
20240620035017 77 113 0.0 3.0 0.00 0.00 0.00 66 1023.6
20240620034517 77 102 1.0 3.0 0.00 0.00 0.00 66 1023.5
20240620034017 77 102 1.0 4.0 0.00 0.00 0.00 66 1023.5
20240620033517 77 90 0.0 4.0 0.00 0.00 0.00 67 1023.5
20240620033017 77 88 1.0 3.0 0.00 0.00 0.00 67 1023.6
20240620032518 77 0 0.0 0.0 0.00 0.00 0.00 67 1023.5
20240620032018 77 88 0.0 1.0 0.00 0.00 0.00 66 1023.5
20240620031517 77 75 0.0 4.0 0.00 0.00 0.00 66 1023.4
20240620031017 77 61 0.0 3.0 0.00 0.00 0.00 66 1023.4
20240620030517 77 73 1.0 4.0 0.00 0.00 0.00 66 1023.4
20240620030017 77 66 1.0 3.0 0.00 0.00 0.00 66 1023.4
20240620025517 77 0 1.0 0.0 0.00 0.00 0.00 66 1023.3
20240620025017 77 71 0.0 3.0 0.00 0.00 0.00 66 1023.2
20240620024517 77 103 1.0 5.0 0.00 0.00 0.00 66 1023.2
20240620024017 77 109 1.0 3.0 0.00 0.00 0.00 67 1023.2
20240620023518 77 0 2.0 0.0 0.00 0.00 0.00 67 1023.2
20240620023018 77 0 0.0 0.0 0.00 0.00 0.00 67 1023.1
20240620022518 77 0 0.0 0.0 0.00 0.00 0.00 66 1023.1
20240620022017 77 0 0.0 0.0 0.00 0.00 0.00 67 1023.1
20240620021517 77 0 0.0 0.0 0.00 0.00 0.00 66 1023.1
20240620021017 77 0 0.0 0.0 0.00 0.00 0.00 66 1023.0
20240620020517 77 0 0.0 0.0 0.00 0.00 0.00 66 1023.0
20240620020017 77 0 0.0 0.0 0.00 0.00 0.00 66 1023.0
20240620015517 78 0 0.0 0.0 0.00 0.00 0.00 66 1022.9
20240620015017 78 0 0.0 0.0 0.00 0.00 0.00 65 1022.9
20240620014517 78 0 0.0 0.0 0.00 0.00 0.00 65 1022.9
20240620014017 78 0 0.0 0.0 0.00 0.00 0.00 65 1022.8
20240620013517 78 0 0.0 0.0 0.00 0.00 0.00 64 1022.8
20240620013017 79 0 0.0 0.0 0.00 0.00 0.00 64 1022.8
20240620012517 79 0 0.0 0.0 0.00 0.00 0.00 63 1022.8
20240620012017 79 0 0.0 0.0 0.00 0.00 0.00 63 1022.8
20240620011517 79 0 0.0 0.0 0.00 0.00 0.00 63 1022.9
20240620011018 79 0 0.0 0.0 0.00 0.00 0.00 62 1022.9
20240620010517 80 0 0.0 0.0 0.00 0.00 0.00 62 1022.8
20240620010017 80 0 0.0 0.0 0.00 0.00 0.00 61 1022.8
20240620005517 80 0 0.0 0.0 0.00 0.00 0.00 60 1022.8
20240620005017 80 0 0.0 0.0 0.00 0.00 0.00 60 1022.7
20240620004518 81 0 0.0 0.0 0.00 0.00 0.00 60 1022.8
20240620004018 81 0 0.0 0.0 0.00 0.00 0.00 59 1022.7
20240620003517 82 92 0.0 3.0 0.00 0.00 0.00 58 1022.7
20240620003017 82 116 0.0 1.0 0.00 0.00 0.00 56 1022.6
20240620002517 82 44 0.0 1.0 0.00 0.00 0.00 55 1022.6
20240620002017 83 0 0.0 0.0 0.00 0.00 0.00 55 1022.6
20240620001518 83 0 0.0 0.0 0.00 0.00 0.00 54 1022.5
20240620001017 83 0 0.0 0.0 0.00 0.00 0.00 54 1022.5
20240620000517 83 79 0.0 3.0 0.00 0.00 0.00 54 1022.4
20240620000017 83 0 0.0 0.0 0.00 0.00 0.00 53 1022.4
20240619235517 83 0 0.0 0.0 0.00 0.00 0.00 53 1022.4
20240619235018 83 0 0.0 0.0 0.00 0.00 0.00 53 1022.4
20240619234517 83 78 0.0 7.0 0.00 0.00 0.00 52 1022.3
20240619234017 83 62 2.0 7.0 0.00 0.00 0.00 52 1022.3
20240619233517 84 88 1.0 9.0 0.00 0.00 0.00 51 1022.3
20240619233017 84 76 1.0 8.0 0.00 0.00 0.00 51 1022.3
20240619232517 84 85 2.0 4.0 0.00 0.00 0.00 50 1022.2
20240619232017 84 68 1.0 8.0 0.00 0.00 0.00 50 1022.2
20240619231518 84 72 3.0 9.0 0.00 0.00 0.00 50 1022.2
20240619231018 85 82 1.0 8.0 0.00 0.00 0.00 49 1022.1
20240619230517 85 78 1.0 11.0 0.00 0.00 0.00 49 1022.0
20240619230017 85 88 3.0 9.0 0.00 0.00 0.00 49 1022.1
20240619225517 86 89 6.0 5.0 0.00 0.00 0.00 50 1022.0
20240619225022 86 64 1.0 10.0 0.00 0.00 0.00 49 1021.8
20240619224518 86 79 4.0 11.0 0.00 0.00 0.00 49 1021.8
20240619224018 86 71 8.0 10.0 0.00 0.00 0.00 49 1021.7
20240619223518 87 73 2.0 7.0 0.00 0.00 0.00 48 1021.6
20240619223018 87 65 1.0 10.0 0.00 0.00 0.00 48 1021.7
20240619222517 87 73 1.0 12.0 0.00 0.00 0.00 47 1021.7
20240619222017 87 86 2.0 9.0 0.00 0.00 0.00 46 1021.7
20240619221517 87 23 0.0 3.0 0.00 0.00 0.00 48 1021.7
20240619221018 87 78 0.0 4.0 0.00 0.00 0.00 48 1021.7
20240619220517 87 61 0.0 5.0 0.00 0.00 0.00 48 1021.7
20240619220017 87 100 2.0 9.0 0.00 0.00 0.00 48 1021.7
20240619215517 86 73 5.0 9.0 0.00 0.00 0.00 48 1021.7
20240619215017 87 89 3.0 7.0 0.00 0.00 0.00 48 1021.8
20240619214517 87 30 4.0 7.0 0.00 0.00 0.00 47 1021.8
20240619214017 87 92 0.0 10.0 0.00 0.00 0.00 46 1021.7
20240619213517 87 114 4.0 6.0 0.00 0.00 0.00 46 1021.7